Meteo Giornale » Osservazioni meteo Italia » Sarzana-Luni

ore: 07:55 - Osservazioni Meteo Sarzana-Luni
Lat. 44° 5' N Lon. 9° 59' E Alt. 9 metri s.l.m.

poco_nuvoloso

20 °C

Poco Nuvoloso

Temp. 24 Ore

20 °C

29 °C

Nord-Ovest

9.3 Km/h

Dew point 18 °C

Umidità 88 %

Visibilità  10 Km

Il sole sorge alle ore 06:44

Il sole tramonta alle ore 19:55

Data e Ora Cielo e Fenomeni T °C DP °C Um. % Pres. hPa Vis. km Vento km/h
Oggi h: 07:55 poco_nuvoloso Poco Nuvoloso 20 18 88 1018 10 NO 9.3
Oggi h: 06:55 sereno Sereno 20 18 88 1018 20 N/NO 7.4
Oggi h: 05:55 sereno Sereno 20 18 88 1018 20 NO 9.3
Oggi h: 04:55 sereno Sereno 20 18 88 1018 20 NO 9.3
Oggi h: 03:55 sereno Sereno 21 18 82 1018 20 N/NO 11.1
Oggi h: 02:55 sereno Sereno 21 19 88 1018 20 NO 11.1
Oggi h: 01:55 sereno Sereno 22 19 83 1018 12 NO 11.1
Oggi h: 00:55 sereno Sereno 22 19 83 1018 12 N/NO 7.4
Ieri h: 23:55 sereno Sereno 22 19 83 1018 12 NO 7.4
Ieri h: 22:55 sereno Sereno 23 20 83 1018 12 N 5.5
Ieri h: 21:55 sereno Sereno 25 20 73 1018 12 N 3.7
Ieri h: 20:55 sereno Sereno 26 20 69 1017 12 N 1.8
Ieri h: 19:55 sereno Sereno 27 21 69 1017 12 N 3.7
Ieri h: 18:55 sereno Sereno 28 20 61 1017 12 S/SE 7.4
Ieri h: 17:55 sereno Sereno 28 19 58 1017 12 N 5.5
Ieri h: 16:55 sereno Sereno 29 19 54 1017 11 S 11.1
Ieri h: 15:55 poco_nuvoloso Poco Nuvoloso 29 21 62 1017 10 S 13
Ieri h: 14:55 poco_nuvoloso Poco Nuvoloso 29 20 58 1017 10 S/SE 13
Ieri h: 13:55 poco_nuvoloso Poco Nuvoloso 29 19 54 1018 10 S/SE 11.1
Ieri h: 12:55 poco_nuvoloso Poco Nuvoloso 29 21 62 1018 10 S 13
Ieri h: 11:55 poco_nuvoloso Poco Nuvoloso 29 20 58 1018 10 S 13
Ieri h: 10:55 poco_nuvoloso Poco Nuvoloso 29 20 58 1017 10 N 11.1
Ieri h: 09:55 nuvoloso Nuvoloso 27 21 69 1017 10 N 5.5
Ieri h: 08:55 nuvoloso Nuvoloso 24 20 78 1017 10 N 5.5